Regional Weather Roundup
Issued by NWS Cleveland, OH

Home | Current Version | Previous Version | Graphics & Text | Print | Product List | Glossary On
Versions: 1 2 3 4 5 6 7 8 9 10 11 12 13 14 15 16 17 18 19 20 21 22 23 24 25 26 27 28 29 30 31 32 33 34 35 36 37 38 39 40 41 42 43 44 45 46 47 48 49 50
000
ASUS41 KCLE 291002
RWRCLE
OHIO REGIONAL WEATHER ROUNDUP
NATIONAL WEATHER SERVICE CLEVELAND, OH
600 AM EDT SAT JUL 29 2017

NOTE: "FAIR" INDICATES FEW OR NO CLOUDS BELOW 12,000 FEET WITH NO
SIGNIFICANT WEATHER AND/OR OBSTRUCTIONS TO VISIBILITY.

OHZ001>008-015>018-024>027-034-035-043-044-291100-
   NORTHWEST OHIO

CITY           SKY/WX    TMP DP  RH WIND       PRES   REMARKS
DEFIANCE       CLEAR     56  52  86 N8        30.02R
FINDLAY        CLEAR     58  52  80 N9        29.98R
TOLEDO EXPRESS CLEAR     55  54  96 N9        30.02R
TOLEDO EXEC    CLEAR     60  57  89 N8        30.02R
LIMA           PTCLDY    54  53  97 N7        29.99R
$$

OHZ009>014-019>023-028>033-038-089-291100-
   NORTHEAST OHIO

CITY           SKY/WX    TMP DP  RH WIND       PRES   REMARKS
CLE-HOPKINS    CLOUDY    67  50  54 NE13      29.98R
CLE-LAKEFRONT  CLOUDY    65  51  60 NE8       29.96R
CUY CO. ARPT   NOT AVBL
LORAIN-ELYRIA  PTCLDY    59  49  69 NE5       29.98R
ASHTABULA      MOCLDY    58  50  75 E3        29.98R
AKRON-CANTON   CLOUDY    61  46  57 NE12      29.94R
WOOSTER        PTCLDY    58  46  64 N8        29.95R
MANSFIELD      CLEAR     57  49  74 N7        29.97R
YOUNGSTOWN     CLOUDY    59  48  67 N9        29.94R
$$

OHZ042-051>053-060>062-070>072-077>081-291100-
  SOUTHWEST OHIO

CITY           SKY/WX    TMP DP  RH WIND       PRES   REMARKS
CINC-COVINGTON CLEAR     62  59  90 N13       29.93R
CINC-LUNKEN    CLEAR     63  58  83 N7        29.93R
HAMILTON       CLEAR     61  57  87 N5        29.95R
DAYTON         CLEAR     58  54  86 N10       29.96S
WRIGHT-PAT AFB CLEAR     59  57  92 N8        29.94R
DAYTON GENERAL PTCLDY    60  55  83 N12       29.93R
WILMINGTON     CLEAR     58  57  97 N7        29.92R
$$

OHZ036-037-039>041-045>050-054>059-063>069-073>076-082>088-291100-
  CENTRAL AND SOUTHEAST OHIO

CITY           SKY/WX    TMP DP  RH WIND       PRES   REMARKS
COLUMBUS       PTCLDY    60  51  72 N10       29.92R
OSU AIRPORT    CLEAR     58  53  84 N10       29.93R
BOLTON FIELD   CLEAR     59  53  78 N12       29.94R
RICKENBACK AFB PTCLDY    60  50  69 N7        29.92R
NEWARK         PTCLDY    61  46  57 N9        29.91R
MARION         CLEAR     56  51  84 N7        29.97R
LANCASTER      CLEAR     59  52  77 N7        29.91R
ZANESVILLE     MOCLDY    61  53  75 N6        29.90R
NEW PHILLY     NOT AVBL
$$



USA.gov is the U.S. government's official web portal to all federal, state and local government web resources and services.